{"data":{"norad_id":53057,"epoch":"2026-05-24T23:21:36.029088Z","epoch_age_seconds":71353,"freshness":"FRESH","line1":"1 53057U 22077Q   26144.97333367  .00000226  00000+0  19746-4 0  9996","line2":"2 53057  97.4500 326.1101 0001521 148.7875 211.3443 15.05654299212469","mean_motion":15.05654299,"eccentricity":0.0001521,"inclination_deg":97.45,"raan_deg":326.1101,"arg_perigee_deg":148.7875,"mean_anomaly_deg":211.3443,"bstar":1.9746e-5,"rev_number":21246,"period_min":95.639483841437,"perigee_km":548.44427403567,"apogee_km":550.55166059273,"semimajor_km":6927.6349673142,"source":"CELESTRAK","updated_at":"2026-05-25T13:38:17.288645Z"}}